Probability
41 47 52 53 58 63 60 51 47 47 44 37 31 26 19 14 11 11 14 17 17 16 17 17 16 12 8 6 6 4 4 5 4 4 4 5 5 5 4 3 2 1 2
46 52 56 57 61 65 61 55 52 51 47 40 34 30 25 20 15 15 18 20 19 18 18 18 15 10 7 6 7 6 5 5 5 5 5 4 3 3 3 3 3 3 4
53 56 59 61 64 66 65 61 60 58 54 47 39 35 35 30 22 21 25 24 22 19 19 18 13 8 5 6 9 9 8 8 7 7 6 4 2 1 1 2 4 5 7
54 57 57 59 62 65 67 68 67 65 60 54 44 39 39 37 30 28 29 27 23 20 20 18 14 9 6 6 8 10 12 13 11 10 8 6 4 2 1 1 2 4 5
48 51 52 53 56 62 68 71 72 71 66 59 50 43 39 38 35 33 31 27 23 20 20 19 17 13 8 6 7 10 14 16 14 13 10 8 7 5 2 1 0 2 3
37 43 47 49 51 56 65 73 77 76 69 62 56 50 44 41 39 36 32 26 22 21 21 21 21 19 13 10 10 12 14 16 17 16 12 9 8 7 3 1 1 2 3
29 37 45 49 51 52 60 73 80 79 72 66 61 57 50 45 43 40 33 26 22 22 23 24 25 24 19 15 14 14 14 15 18 18 13 11 10 8 5 3 2 4 6
24 32 44 50 51 51 59 73 80 79 75 70 65 59 52 46 43 41 35 27 22 21 25 29 31 28 23 21 20 18 15 16 17 15 13 13 12 10 9 7 5 5 5
26 33 43 50 52 54 63 73 77 76 75 72 66 58 51 47 42 38 34 28 22 21 26 32 34 30 26 25 26 25 21 20 20 15 13 14 15 13 12 12 10 5 3
28 35 44 51 55 59 67 74 75 73 72 70 64 57 53 50 44 37 33 29 25 22 26 31 31 29 27 27 30 31 27 24 21 16 13 15 15 13 12 13 12 7 4
29 36 46 54 59 63 69 75 76 74 73 70 64 59 56 53 49 43 38 35 30 26 26 27 29 28 27 28 32 32 29 24 19 14 12 13 14 12 11 12 12 9 7
34 39 47 55 62 66 71 76 76 76 74 71 67 62 59 57 55 51 47 43 37 32 29 29 30 30 29 29 29 29 25 21 14 10 10 12 13 12 10 11 12 9 8
42 48 56 63 68 73 77 78 76 75 74 72 69 67 64 63 62 60 56 50 43 38 36 35 32 30 27 25 23 22 20 15 10 8 9 11 13 12 10 10 12 11 8
51 58 69 77 81 84 85 82 77 75 74 73 72 71 69 66 65 64 59 55 48 42 39 37 32 26 21 18 16 15 13 10 8 7 7 8 9 9 9 9 11 12 10
61 66 78 88 91 92 92 87 82 79 77 76 74 72 69 66 64 62 59 57 52 44 40 36 30 23 18 14 12 11 11 10 10 9 8 7 5 4 5 5 7 10 11
71 75 84 91 93 93 91 88 86 84 81 78 75 71 69 67 64 62 60 58 54 49 43 36 30 24 16 10 8 9 11 13 13 13 12 8 3 1 1 2 2 4 6
79 83 88 90 90 90 88 86 86 86 84 80 74 71 70 70 67 65 62 61 59 57 52 44 36 27 16 8 5 6 8 12 14 15 13 9 5 2 1 1 1 1 2
82 85 88 89 90 89 88 86 85 86 85 81 76 72 71 72 70 67 64 64 65 64 59 51 41 30 19 9 4 4 5 8 11 12 11 10 8 5 3 2 1 1 1
81 83 86 88 91 92 91 88 86 86 86 83 79 75 73 70 68 65 64 65 66 63 58 51 42 33 21 10 5 4 6 8 8 8 8 8 8 4 2 1 1 2 2
81 82 84 87 90 92 92 90 88 87 86 83 80 78 73 67 63 63 63 65 63 59 53 48 42 34 23 11 4 4 7 10 10 8 6 5 4 2 0 0 1 2 3
82 82 84 87 88 89 90 89 87 86 84 81 79 78 73 65 62 63 64 64 61 56 51 48 42 34 22 10 3 3 6 10 11 9 6 4 2 0 0 0 1 2 3
82 82 84 86 86 86 86 84 82 81 80 78 79 77 72 65 63 62 63 62 59 54 51 46 39 31 21 10 4 2 3 5 8 7 5 4 2 0 0 0 0 1 1
80 80 81 82 83 82 81 79 76 76 77 77 78 76 70 65 62 60 58 56 53 50 48 43 38 31 22 12 5 2 1 1 3 4 3 1 1 0 0 0 0 0 0
78 78 77 75 74 74 74 74 72 73 75 76 75 71 64 59 56 53 47 43 40 39 40 38 35 29 21 11 5 2 1 0 1 1 0 0 0 0 0 0 0 0 0
75 72 68 65 65 66 66 67 69 71 72 72 68 61 55 51 47 40 31 25 23 23 25 26 24 20 14 7 3 1 1 1 0 0 0 0 0 0 0 0 0 0 0
70 65 59 58 60 60 60 62 66 69 70 67 61 55 51 48 42 32 19 12 10 10 11 13 13 10 6 3 1 1 1 1 0 0 0 0 0 0 0 0 0 0 0
Wind_Speed
12 11 11 11 10 9 8 7 7 6 5 4 4 3 3 3 3 3 4 4 4 4 3 2 2 2 2 2 2 2 3 2 2 1 1 2 4 4 4 4 4 5 5
13 12 11 11 11 10 8 8 7 7 6 4 3 3 3 2 3 2 3 4 4 3 4 3 3 3 2 2 3 2 2 2 3 2 1 2 2 2 5 4 4 5 4
14 13 12 11 11 10 10 8 8 7 7 6 4 3 2 1 1 2 2 3 4 4 3 3 3 2 3 3 3 3 4 3 3 3 2 2 2 1 2 3 4 4 4
15 14 13 12 11 11 10 8 8 7 7 6 5 5 4 3 3 2 2 3 3 3 4 4 3 3 3 3 4 4 3 3 3 3 3 3 2 1 1 2 3 3 4
15 14 13 12 11 11 11 9 8 7 6 6 5 4 4 3 2 2 2 2 2 3 4 4 3 3 3 3 3 3 4 3 3 3 2 3 3 4 3 3 2 2 3
14 14 13 11 10 10 10 10 9 7 7 6 5 5 4 3 2 3 2 2 2 3 4 4 3 3 3 3 3 3 4 4 4 3 3 3 3 3 3 3 3 2 3
14 14 13 12 10 10 10 10 10 8 8 7 6 5 4 4 4 3 3 3 2 2 3 3 2 3 3 4 4 4 4 5 5 5 4 4 4 3 3 3 3 3 2
13 14 13 12 10 10 10 10 10 9 8 7 6 4 4 3 3 3 2 2 2 1 2 2 3 3 4 5 4 4 5 5 5 6 5 4 4 3 3 3 2 2 2
13 15 14 13 12 11 10 10 10 9 9 8 6 5 4 3 2 2 3 2 2 2 2 2 3 4 4 4 3 3 4 4 4 5 5 4 4 4 3 3 3 3 3
10 12 13 13 12 11 9 9 9 8 8 8 7 6 5 4 3 2 2 2 1 1 1 2 3 3 4 4 3 4 4 4 4 3 4 4 4 3 3 3 2 3 3
12 10 10 12 12 12 11 10 10 9 8 7 6 5 6 5 5 3 3 2 2 2 2 2 3 3 3 3 3 4 3 3 3 3 4 4 4 3 3 2 2 2 2
10 12 11 10 11 12 12 11 10 10 9 7 6 6 5 5 4 4 3 3 3 3 3 3 3 3 3 2 2 3 3 2 3 3 3 3 3 3 3 2 3 3 3
8 10 11 11 10 10 11 11 11 10 10 9 7 6 6 5 4 3 3 2 2 2 2 2 2 2 2 2 2 2 2 2 3 3 3 3 3 3 3 3 3 2 3
7 8 8 8 8 8 8 9 10 10 10 9 8 7 6 5 4 3 3 3 2 2 2 1 1 1 1 2 2 2 2 2 2 2 2 2 2 3 3 3 3 2 2
7 6 7 7 7 7 7 7 7 8 8 8 8 7 6 5 4 4 3 3 2 2 1 1 1 1 1 2 3 3 2 2 2 2 2 1 1 2 1 2 1 2 2
5 5 6 7 8 8 7 7 6 7 7 7 7 7 6 5 5 4 4 3 2 1 1 1 0 1 1 3 4 4 3 2 2 2 2 1 1 1 1 1 2 2 2
4 4 4 5 5 7 8 7 6 7 7 7 6 7 6 6 5 5 4 3 2 2 2 1 1 2 2 3 4 5 4 3 2 1 2 2 1 1 1 1 1 1 1
3 2 3 3 4 5 7 7 7 7 7 7 6 6 6 5 5 4 3 3 2 2 2 2 1 2 2 2 3 5 4 2 1 1 2 1 2 2 3 2 1 1 1
3 2 1 3 3 3 5 6 7 7 7 6 5 5 5 5 5 4 3 3 3 2 2 2 2 2 2 2 3 4 3 1 0 0 2 2 2 3 4 2 2 1 1
3 3 2 3 3 3 4 6 6 5 5 5 4 4 4 4 4 3 3 2 2 2 2 2 2 2 2 2 2 4 3 2 1 1 2 4 2 2 3 2 2 2 2
3 4 4 3 4 3 4 5 4 4 4 4 4 4 4 4 4 3 2 2 2 2 1 1 2 2 3 3 1 2 2 3 3 1 1 2 2 1 2 2 2 2 3
4 4 4 5 5 4 4 4 4 4 4 5 4 4 3 3 3 3 2 2 1 1 2 2 1 2 2 2 1 1 2 4 3 2 2 1 0 1 2 2 2 3 3
4 4 5 6 6 5 5 5 3 3 4 4 4 4 3 2 3 3 3 2 1 1 1 1 1 1 2 2 1 1 2 3 2 2 3 1 1 1 2 1 2 3 2
5 5 6 6 5 5 5 5 5 4 3 4 4 4 3 3 2 1 1 1 1 1 0 0 0 1 2 2 1 0 1 1 1 1 1 2 2 2 2 1 2 2 1
5 4 5 5 5 5 5 5 4 3 3 3 2 3 3 4 3 3 3 2 3 2 1 1 1 1 1 2 2 1 1 2 2 2 1 1 1 1 1 1 1 1 1
4 4 4 4 5 5 5 4 3 3 2 2 2 1 2 3 3 5 4 7 5 6 6 5 3 3 3 2 2 2 2 2 3 2 1 1 1 1 1 1 1 1 1
Wind_Direction
172 167 169 166 165 162 165 169 178 174 179 185 184 190 200 206 202 206 187 189 204 195 197 235 171 198 204 208 212 199 204 220 231 244 255 250 236 210 205 206 209 204 204
170 168 173 173 171 169 170 172 178 179 186 188 187 191 195 212 205 208 183 196 203 200 205 204 205 194 197 220 228 219 217 230 219 209 225 253 257 249 226 201 207 214 203
172 171 177 178 175 173 177 182 180 180 185 185 187 190 174 197 221 202 194 208 209 214 223 199 214 203 205 207 214 220 217 228 241 223 209 220 234 259 260 226 216 205 199
171 172 177 180 180 177 176 173 174 179 177 181 194 196 189 197 204 197 201 211 217 221 217 211 209 215 231 208 218 218 223 227 240 243 233 235 216 218 270 262 238 219 212
169 171 175 177 179 175 172 171 168 174 174 183 190 192 203 203 194 181 195 207 214 220 223 215 203 206 228 229 234 231 228 229 234 237 239 244 238 225 224 250 253 246 232
165 166 168 168 172 170 167 166 164 170 174 185 193 192 202 200 199 193 191 204 212 212 217 222 200 205 221 229 232 235 236 239 244 248 245 235 229 230 222 235 240 235 237
165 163 166 166 168 168 166 162 161 169 177 186 193 195 199 203 207 210 204 211 221 199 194 213 192 216 228 227 227 234 241 241 243 243 247 246 243 243 233 229 246 255 252
166 163 165 165 164 169 168 162 162 169 178 184 186 188 193 209 198 204 222 221 230 214 188 201 203 223 233 240 229 239 239 238 241 248 243 244 246 248 236 220 226 256 258
163 161 165 165 165 170 168 163 159 167 175 180 176 182 188 198 195 195 206 215 218 232 205 211 216 227 234 244 244 243 249 247 243 250 246 241 245 243 241 225 205 208 241
159 161 162 163 164 167 164 159 158 164 171 174 178 179 180 184 190 211 207 209 233 257 251 244 242 242 238 233 238 251 245 243 249 251 258 255 256 256 255 242 226 211 223
165 157 160 161 163 165 163 163 158 162 169 173 174 162 168 180 185 191 203 203 222 235 245 253 259 259 254 248 242 255 259 255 257 263 262 262 259 260 271 266 245 234 228
155 152 159 164 167 168 165 164 164 169 171 168 166 166 168 173 184 183 185 194 207 223 229 238 253 264 269 271 265 272 273 267 269 266 262 267 262 247 256 265 255 243 233
148 151 160 165 167 167 166 165 170 173 171 167 167 167 174 177 180 178 179 192 207 227 240 239 243 273 294 290 283 281 276 274 274 270 263 264 264 259 258 261 264 262 261
149 154 154 155 158 159 159 164 173 171 169 166 169 170 175 174 178 175 177 186 198 223 236 257 271 279 303 332 327 313 288 279 278 287 289 287 270 264 263 257 261 266 268
153 155 150 150 155 157 159 165 169 166 164 162 167 168 172 174 175 171 174 176 187 208 205 231 292 316 8 2 339 310 296 293 290 297 298 302 338 351 321 298 300 289 278
157 156 152 154 162 164 166 167 168 160 154 162 167 164 169 169 170 170 169 175 175 168 158 172 128 41 19 16 8 347 319 308 306 313 311 265 85 29 359 325 299 271 262
146 150 156 160 164 170 168 169 167 158 160 166 167 167 169 169 171 173 170 174 169 169 162 159 140 104 55 25 6 350 315 309 324 324 311 307 1 60 354 293 284 323 287
129 135 157 153 163 174 169 166 163 161 166 171 172 167 167 164 162 165 168 167 170 177 162 171 168 136 86 34 358 334 296 294 335 352 345 353 30 9 350 313 305 336 9
86 95 126 143 143 153 154 152 160 163 166 166 166 165 163 161 161 167 172 171 178 177 173 165 165 141 110 56 8 344 298 272 243 65 32 24 56 9 349 327 330 338 2
59 72 71 83 109 109 131 144 152 151 157 155 152 144 143 147 156 168 175 171 176 177 187 165 153 136 118 94 38 350 308 309 275 156 117 75 56 12 353 320 311 294 301
68 75 73 70 83 92 111 135 141 144 139 130 130 137 144 155 156 153 159 166 178 178 184 150 134 118 113 120 70 6 337 334 324 317 122 98 70 37 342 319 312 297 292
77 84 80 74 77 78 93 110 119 121 125 128 130 138 144 156 142 142 152 154 159 178 184 177 170 138 123 106 115 336 322 328 324 334 23 70 28 298 304 311 321 308 297
71 79 87 83 79 77 84 94 97 105 116 120 126 127 125 113 125 152 154 159 168 205 205 191 193 134 118 113 110 226 281 313 323 1 24 24 247 276 245 250 299 304 290
71 75 90 91 85 81 84 93 88 89 108 126 130 135 137 131 107 87 87 87 49 347 334 60 25 99 98 78 64 13 235 255 243 273 244 221 238 272 309 279 245 249 289
84 81 90 99 94 90 89 87 91 102 105 114 134 156 150 138 123 92 52 62 65 40 357 15 27 31 81 44 26 17 18 2 4 334 287 237 211 238 253 252 260 275 264
83 88 92 100 101 98 90 86 92 105 116 134 149 172 153 142 141 126 99 53 69 66 58 49 50 71 88 114 71 51 37 17 12 355 306 327 341 333 330 339 1 359 350